Regional Weather Roundup
Issued by NWS Mobile, AL

Home | Current Version | Previous Version | Text Only | Print | Product List | Glossary On
Versions: 1 2 3 4 5 6 7 8 9 10 11 12 13 14 15 16 17 18 19 20 21 22 23 24 25 26 27 28 29 30 31 32 33 34 35 36 37 38 39 40 41 42 43 44 45 46 47 48 49 50
000
ASUS44 KMOB 311310
RWRMOB
REGIONAL WEATHER ROUNDUP
NATIONAL WEATHER SERVICE MOBILE AL
700 AM CST SAT JAN 31 2015

NOTE: "FAIR" INDICATES FEW OR NO CLOUDS BELOW 12,000 FEET WITH NO
      SIGNIFICANT WEATHER AND/OR OBSTRUCTIONS TO VISIBILITY.

  * THESE STATIONS ARE PART OF THE UNIVERSITY OF SOUTH ALABAMA
    MESONET AND ARE NOT UNDER NWS OR FAA QUALITY CONTROL.

ALZ061>064-311400-
COASTAL ALABAMA

CITY           SKY/WX    TMP DP  RH WIND       PRES   REMARKS
MOBILE REG APT PTCLDY    35  25  66 NE7       30.33R WCI  29
BROOKLEY FIELD CLEAR     42  29  59 NE9       30.34R
USA CAMPUS*    NOT AVBL
DOG RIVER*     NOT AVBL


CITY           SKY/WX    TMP DP  RH WIND       PRES   REMARKS
MOUNT VERNON*  NOT AVBL
SARALAND*      NOT AVBL
BAY MINETTE*   NOT AVBL
LOXLEY*        NOT AVBL
ROBERTSDALE*   NOT AVBL
FAIRHOPE*        N/A    N/A N/A N/A E12       30.30S
ELBERTA*         N/A    N/A N/A N/A NE3       30.30S
FOLEY*         NOT AVBL
GRAND BAY*     NOT AVBL
DAUPHIN ISLND* NOT AVBL
BON SCOUR NWR* NOT AVBL
GULF SHORES    CLEAR     36  28  73 NE6       30.31S

$$

ALZ051>060-311400-
INTERIOR SOUTHWEST AND SOUTH CENTRAL ALABAMA

CITY           SKY/WX    TMP DP  RH WIND       PRES   REMARKS
GREENVILLE     CLEAR     32  23  69 N3        30.33R
EVERGREEN      CLEAR     28  25  88 CALM      30.34S
CASTLEBERRY*   NOT AVBL
ATMORE*          N/A    N/A N/A N/A NE7       30.34R
DIXIE*           N/A    N/A N/A N/A CALM      30.29R
ANDALUSIA/OPP  CLEAR     33  25  72 CALM      30.34R
ANDALUSIA*       N/A    N/A N/A N/A NE7       30.31R
FLORALA APT    CLEAR     34  25  69 NE6       30.34S WCI  29
FLORALA*         N/A    N/A N/A N/A CALM      30.29S

$$

FLZ001>006-311400-
WESTERN FLORIDA PANHANDLE

CITY           SKY/WX    TMP DP  RH WIND       PRES   REMARKS
PENSACOLA      CLEAR     39  27  62 NE5       30.32R
NAS PENSACOLA  CLEAR     42  30  62 NE13      30.31R
MILTON         CLEAR     35  25  66 NE3       30.32R
WHTNG S FIELD  CLEAR     36  25  64 NE5       30.32S


CITY           SKY/WX    TMP DP  RH WIND       PRES   REMARKS
WALNUT HILL*   NOT AVBL
JAY*           NOT AVBL
DUKE FIELD     CLEAR     26  24  91 CALM      30.32S
CRESTVIEW      CLEAR     27  25  92 CALM      30.34R
VALPARAISO     PTCLDY    33  26  76 NE7       30.32R WCI  27
DESTIN         CLEAR     43  28  55 NE10G22   30.32F

$$

MSZ076-079-311400-
INTERIOR SOUTHEAST MISSISSIPPI

CITY           SKY/WX    TMP DP  RH WIND       PRES   REMARKS
LEAKESVILLE*   NOT AVBL
AGRICOLA*      NOT AVBL

$$

MARINE OBSERVATIONS

STATION/POSITION TIME  TEMP    WIND        PRES    WAVE
                       AIR SEA DIR/SP/G            HT/PER
                 (UTC) (F)     (DEG/KT/KT) (MB)    (FT/S)
PASCAGOULA       1300   40      50/  5/  7 1026.1R
PETIT BOIS ISLND 1300   48      80/ 18/ 23 1026.2R
GRAND BAY        1200   43      60/ 10     1026.0S
KATRINA CUT      1200   46      80/ 22     1026.1S
CEDAR POINT      1200   45      80/ 15     1026.8R
E DAUPHIN ISLAND 1200   46      70/ 19/ 20 1026.0R
MIDDLE BAY LIGHT 1200   43      80/ 18     1024.7F
USCG MOBILE BAY  1300   41 54   50/  6/  8 1026.0R
STATE DOCKS      1300   40 50              1026.6R
MEAHER PARK      1200   39      10/  3     1027.1R
WEEKS BAY        1200   37                   N/A
FORT MORGAN      1300   44      90/ 12/ 18 1025.6R
12 S ORANGE BCH  1300   53 62   70/ 19/ 21 1024.9F   4/ 5
PENSACOLA BAY    1300   44 55   80/  6/ 11 1026.8R
64 S DAUPHIN ISL 1205   60 68   90/ 17/ 21 1025.1R   4/ 6

$$

SELECTED LOCATIONS ACROSS THE REGION

CITY           SKY/WX    TMP DP  RH WIND       PRES   REMARKS
NEW ORLEANS    PTCLDY    45  37  73 E6        30.30R
GULFPORT       CLEAR     38  29  70 NE6       30.31R
PASCAGOULA AP  CLEAR     31  28  89 N3        30.32R
PASCAGOULA*    NOT AVBL
HATTIESBURG    CLEAR     29  28  96 CALM      30.35R
LAUREL         CLEAR     34  25  69 NE5       30.34S WCI  30
MERIDIAN       CLEAR     27  25  92 CALM      30.37R
JACKSON        MOCLDY    38  25  59 E8        30.34R
MONTGOMERY     PTCLDY    31  23  72 N5        30.37R WCI  26
TROY           CLEAR     28  24  85 CALM      30.35R
KINSTON*       NOT AVBL
GENEVA*        NOT AVBL
ASHFORD*         N/A    N/A N/A N/A NE7       30.31R
DOTHAN         CLEAR     33  25  72 NE5       30.37R WCI  29
PANAMA CITY    CLEAR     36  27  69 N5        30.32S

$$



USA.gov is the U.S. government's official web portal to all federal, state and local government web resources and services.